Hourly Weather Gogolevskiy

Today, 15 May, Saturday

Time Temperature Precipitation Wind Pressure Humidity
00:00 +19°C° 0 mm 3 mps 752 mmHg 84%
01:00 +19°C° 0 mm 3 mps 752 mmHg 79%
02:00 +18°C° 0 mm 3 mps 752 mmHg 74%
03:00 +18°C° 0 mm 4 mps 752 mmHg 70%
04:00 +18°C° 0 mm 3 mps 752 mmHg 70%
05:00 +17°C° 0 mm 3 mps 752 mmHg 71%
06:00 +17°C° 0 mm 3 mps 752 mmHg 71%
07:00 +19°C° 0 mm 3 mps 752 mmHg 65%
08:00 +21°C° 0 mm 3 mps 753 mmHg 60%
09:00 +22°C° 0 mm 3 mps 753 mmHg 54%
10:00 +25°C° 0 mm 3 mps 753 mmHg 53%
11:00 +26°C° 0 mm 3 mps 753 mmHg 51%
12:00 +27°C° 0 mm 2 mps 753 mmHg 50%
13:00 +28°C° 0 mm 2 mps 753 mmHg 49%
14:00 +28°C° 0 mm 2 mps 753 mmHg 49%
15:00 +29°C° 0 mm 3 mps 753 mmHg 48%
16:00 +29°C° 0 mm 2 mps 753 mmHg 51%
17:00 +28°C° 0 mm 2 mps 753 mmHg 54%
18:00 +28°C° 0 mm 1 mps 752 mmHg 56%
19:00 +26°C° 0 mm 1 mps 752 mmHg 60%
20:00 +25°C° 0 mm 1 mps 752 mmHg 64%
21:00 +23°C° 0 mm 1 mps 753 mmHg 67%
22:00 +22°C° 0 mm 1 mps 752 mmHg 70%
23:00 +22°C° 0 mm 1 mps 752 mmHg 72%

Tomorrow, 16 May, Sunday

Time Temperature Precipitation Wind Pressure Humidity
00:00 +21°C° 0 mm 1 mps 752 mmHg 75%
01:00 +19°C° 0 mm 2 mps 752 mmHg 75%
02:00 +19°C° 0 mm 2 mps 752 mmHg 76%
03:00 +18°C° 0 mm 2 mps 752 mmHg 76%
04:00 +18°C° 0 mm 2 mps 752 mmHg 73%
05:00 +18°C° 0 mm 3 mps 753 mmHg 69%
06:00 +17°C° 0 mm 3 mps 753 mmHg 65%
07:00 +19°C° 0 mm 3 mps 753 mmHg 58%
08:00 +21°C° 0 mm 3 mps 753 mmHg 51%
09:00 +23°C° 0 mm 4 mps 753 mmHg 44%
10:00 +26°C° 0 mm 4 mps 753 mmHg 40%
11:00 +27°C° 0 mm 4 mps 753 mmHg 37%
12:00 +29°C° 0 mm 5 mps 753 mmHg 33%
13:00 +29°C° 0 mm 5 mps 752 mmHg 32%
14:00 +30°C° 0 mm 5 mps 752 mmHg 31%
15:00 +30°C° 0 mm 6 mps 752 mmHg 30%
16:00 +29°C° 0 mm 5 mps 751 mmHg 36%
17:00 +29°C° 0 mm 4 mps 751 mmHg 43%
18:00 +28°C° 0 mm 3 mps 750 mmHg 50%
19:00 +26°C° 0 mm 4 mps 750 mmHg 50%
20:00 +25°C° 0 mm 4 mps 750 mmHg 50%
21:00 +23°C° 0 mm 5 mps 750 mmHg 50%
22:00 +22°C° 0 mm 5 mps 750 mmHg 49%
23:00 +21°C° 0 mm 5 mps 750 mmHg 49%

Day after tomorrow, 17 May, Monday

Time Temperature Precipitation Wind Pressure Humidity
00:00 +20°C° 0 mm 5 mps 750 mmHg 48%
01:00 +20°C° 0 mm 5 mps 750 mmHg 46%
02:00 +19°C° 0 mm 5 mps 750 mmHg 44%
03:00 +19°C° 0 mm 5 mps 750 mmHg 42%
04:00 +19°C° 0 mm 6 mps 750 mmHg 45%
05:00 +19°C° 0 mm 6 mps 750 mmHg 48%
06:00 +19°C° 0 mm 6 mps 750 mmHg 51%
07:00 +20°C° 0 mm 7 mps 750 mmHg 49%
08:00 +22°C° 0 mm 7 mps 750 mmHg 47%
09:00 +24°C° 0 mm 7 mps 750 mmHg 45%
10:00 +27°C° 0 mm 8 mps 750 mmHg 42%
11:00 +28°C° 0 mm 8 mps 750 mmHg 38%
12:00 +31°C° 0 mm 8 mps 750 mmHg 35%
13:00 +31°C° 0 mm 8 mps 750 mmHg 35%
14:00 +32°C° 0 mm 7 mps 749 mmHg 35%
15:00 +32°C° 0 mm 7 mps 749 mmHg 35%
16:00 +30°C° 0 mm 6 mps 749 mmHg 39%
17:00 +29°C° 0 mm 5 mps 749 mmHg 44%
18:00 +28°C° 0 mm 3 mps 749 mmHg 48%
19:00 +26°C° 0 mm 4 mps 749 mmHg 50%
20:00 +23°C° 0 mm 4 mps 749 mmHg 52%
21:00 +21°C° 0 mm 4 mps 750 mmHg 54%
22:00 +20°C° 0 mm 4 mps 750 mmHg 54%
23:00 +20°C° 0 mm 4 mps 750 mmHg 53%

18 May, Tuesday

Time Temperature Precipitation Wind Pressure Humidity
00:00 +19°C° 0 mm 4 mps 750 mmHg 52%
01:00 +18°C° 0 mm 3 mps 750 mmHg 54%
02:00 +18°C° 0 mm 3 mps 749 mmHg 55%
03:00 +17°C° 0 mm 2 mps 749 mmHg 57%
04:00 +17°C° 0 mm 2 mps 749 mmHg 60%
05:00 +17°C° 0 mm 2 mps 750 mmHg 63%
06:00 +19°C° 0 mm 1 mps 750 mmHg 66%
07:00 +19°C° 0 mm 2 mps 750 mmHg 65%
08:00 +21°C° 0 mm 3 mps 750 mmHg 63%
09:00 +22°C° 0 mm 3 mps 750 mmHg 62%
10:00 +24°C° 0 mm 3 mps 750 mmHg 58%
11:00 +25°C° 0 mm 3 mps 750 mmHg 54%
12:00 +27°C° 0 mm 2 mps 750 mmHg 50%
13:00 +27°C° 0 mm 3 mps 750 mmHg 49%
14:00 +27°C° 0 mm 3 mps 750 mmHg 48%
15:00 +27°C° 0 mm 3 mps 750 mmHg 47%
16:00 +27°C° 0 mm 3 mps 750 mmHg 51%
17:00 +26°C° 0 mm 3 mps 750 mmHg 56%
18:00 +25°C° 0 mm 4 mps 750 mmHg 61%
19:00 +22°C° 0 mm 4 mps 750 mmHg 65%
20:00 +21°C° 0 mm 4 mps 750 mmHg 69%
21:00 +20°C° 0 mm 3 mps 751 mmHg 73%
22:00 +19°C° 0 mm 3 mps 751 mmHg 74%
23:00 +19°C° 0 mm 3 mps 751 mmHg 75%

19 May, Wednesday

Time Temperature Precipitation Wind Pressure Humidity
00:00 +18°C° 0 mm 2 mps 751 mmHg 76%
01:00 +17°C° 0 mm 2 mps 751 mmHg 78%
02:00 +17°C° 0 mm 3 mps 751 mmHg 80%
03:00 +16°C° 0 mm 3 mps 751 mmHg 82%
04:00 +16°C° 0 mm 3 mps 751 mmHg 82%
05:00 +15°C° 0 mm 4 mps 751 mmHg 82%
06:00 +15°C° 0 mm 4 mps 751 mmHg 82%
07:00 +17°C° 0 mm 5 mps 751 mmHg 78%
08:00 +19°C° 0 mm 5 mps 751 mmHg 73%
09:00 +21°C° 0 mm 6 mps 751 mmHg 69%
10:00 +22°C° 0 mm 6 mps 751 mmHg 64%
11:00 +23°C° 0 mm 7 mps 751 mmHg 59%
12:00 +24°C° 0 mm 7 mps 751 mmHg 54%
13:00 +24°C° 0.1 mm 7 mps 751 mmHg 55%
14:00 +24°C° 0.1 mm 7 mps 751 mmHg 55%
15:00 +24°C° 0.1 mm 8 mps 752 mmHg 56%
16:00 +23°C° 0.3 mm 6 mps 752 mmHg 62%
17:00 +21°C° 0.3 mm 5 mps 752 mmHg 68%
18:00 +20°C° 0.3 mm 4 mps 752 mmHg 74%
19:00 +19°C° 0 mm 3 mps 752 mmHg 78%
20:00 +18°C° 0 mm 3 mps 752 mmHg 82%
21:00 +17°C° 0 mm 2 mps 753 mmHg 86%
22:00 +17°C° 0 mm 2 mps 753 mmHg 86%
23:00 +16°C° 0 mm 2 mps 753 mmHg 87%

20 May, Thursday

Time Temperature Precipitation Wind Pressure Humidity
00:00 +16°C° 0 mm 2 mps 753 mmHg 88%
01:00 +16°C° 0 mm 2 mps 753 mmHg 88%
02:00 +16°C° 0 mm 1 mps 753 mmHg 88%
03:00 +16°C° 0 mm 1 mps 753 mmHg 88%
04:00 +16°C° 0.1 mm 1 mps 753 mmHg 88%
05:00 +16°C° 0.1 mm 1 mps 754 mmHg 87%
06:00 +16°C° 0.1 mm 1 mps 754 mmHg 87%
07:00 +17°C° 1 mm 2 mps 754 mmHg 87%
08:00 +17°C° 1 mm 3 mps 754 mmHg 87%
09:00 +17°C° 1 mm 3 mps 755 mmHg 88%
10:00 +17°C° 0.9 mm 3 mps 754 mmHg 87%
11:00 +17°C° 0.9 mm 3 mps 754 mmHg 86%
12:00 +18°C° 0.9 mm 3 mps 754 mmHg 85%
13:00 +19°C° 0 mm 3 mps 754 mmHg 82%
14:00 +20°C° 0 mm 3 mps 754 mmHg 79%
15:00 +21°C° 0 mm 4 mps 753 mmHg 75%
16:00 +21°C° 0.1 mm 4 mps 753 mmHg 76%
17:00 +22°C° 0.1 mm 4 mps 753 mmHg 77%
18:00 +22°C° 0.1 mm 4 mps 752 mmHg 77%
19:00 +21°C° 0.5 mm 4 mps 752 mmHg 81%
20:00 +20°C° 0.5 mm 5 mps 752 mmHg 85%
21:00 +19°C° 0.5 mm 5 mps 751 mmHg 89%
22:00 +19°C° 0.1 mm 5 mps 751 mmHg 89%
23:00 +19°C° 0.1 mm 4 mps 751 mmHg 89%
Show more